Torna al catalogo

SL-12 DEB

AttivoHEO
NORAD 29414·DEBRIS·🇷🇺 Russia

Lanciato May 31, 1989 da Baikonur Cosmodrome

Loading…

Prossimi Passaggi (prossime 24 ore)

TLE

AggiornatoSource: Space-Track

Epoca: Sep 12, 2026, 21:21 UTC

1 29414U 89039BS  26255.89020732  .00000260  00000-0  11714-2 0  9994
2 29414  65.0701 227.1622 5335616  70.4446 338.1562  4.70372168221390

Traccia SL-12 DEB in tempo reale con AllMySat

Download on the App Store